Glencoe, MN

6:28 PM CST on December 09, 2019 (GMT -0600)
Glencoe Municipal

Weather History for KGYL - November, 2019

Change the Weather History Date:

Friday, November 22, 2019

  Actual Average (KHCD) Record (KHCD)
Temperature  
Mean Temperature 24 °F -  
Max Temperature 30 °F 36 °F 62 °F (1990)
Min Temperature 17 °F 20 °F 3 °F (1996)
Degree Days  
Heating Degree Days 42    
Moisture  
Dew Point 19 °F    
Average Humidity 85    
Maximum Humidity 100    
Minimum Humidity 74    
Precipitation  
Precipitation 0.00 in - - ()
Sea Level Pressure  
Sea Level Pressure 30.16 in    
Wind  
Wind Speed 5 mph (SW)    
Max Wind Speed 10 mph    
Max Gust Speed -    
Visibility 10 miles    
Events      
Averages and records for this station are not official NWS values.
T = Trace of Precipitation, MM = Missing Value Source: NWS Daily Summary

Daily Weather History Graph

Daily Weather History Graph

Search for Another Location

Airport or City:

Astronomy

Nov. 22, 2019 Rise Set
Actual Time 7:22 AM CST 4:42 PM CST
Civil Twilight 6:50 AM CST 5:14 PM CST
Nautical Twilight 6:14 AM CST 5:50 PM CST
Astronomical Twilight 5:39 AM CST 6:25 PM CST
Moon 2:13 AM CST (11/22) 2:56 PM CST (11/22)
Length of Visible Light 10h 24m
Length of Day
9h 19m
Waning Crescent, 19% of the Moon is Illuminated
Nov 22
Waning Crescent
Nov 26
New
Dec 4
First Quarter
Dec 11
Full
Dec 18
Last Quarter

Hourly Weather History & Observations

Time (CST) Temp. Windchill Dew Point Humidity Pressure Visibility Wind Dir Wind Speed Gust Speed Precip Events Conditions
12:59 AM 21.2 °F 13.6 °F 15.8 °F 80% 30.23 in 10.0 mi NNW 5.8 mph - N/A   Overcast
1:20 AM - - - N/A% 30.23 in 10.0 mi WNW 6.9 mph - N/A   Overcast
1:59 AM 21.2 °F 13.6 °F 15.8 °F 80% 30.23 in 10.0 mi North 5.8 mph - N/A   Overcast
2:38 AM - - - N/A% 30.23 in 10.0 mi West 6.9 mph - N/A   Overcast
4:16 AM 20.7 °F 14.2 °F 16.0 °F 82% 30.23 in 10.0 mi WNW 4.6 mph - N/A   Overcast
4:42 AM 20.3 °F 12.5 °F 15.8 °F 83% 30.24 in 10.0 mi West 5.8 mph - N/A   Overcast
4:59 AM 20.1 °F 11.3 °F 16.0 °F 84% 30.23 in 10.0 mi West 6.9 mph - N/A   Overcast
5:20 AM 19.9 °F 13.4 °F 16.2 °F 85% 30.23 in 10.0 mi West 4.6 mph - N/A   Overcast
5:40 AM 19.4 °F 11.5 °F 15.8 °F 86% 30.23 in 10.0 mi West 5.8 mph - N/A   Overcast
6:07 AM 19.2 °F - 15.8 °F 87% 30.22 in 10.0 mi Calm Calm - N/A   Overcast
6:20 AM 19.0 °F - 15.8 °F 87% 30.23 in 10.0 mi Calm Calm - N/A   Overcast
6:46 AM - - - N/A% 30.23 in 10.0 mi West 3.5 mph - N/A   Overcast
6:59 AM 19.4 °F - 15.8 °F 86% 30.22 in 10.0 mi Calm Calm - N/A   Overcast
7:59 AM 17.6 °F 9.3 °F 17.6 °F 100% 30.23 in 10.0 mi WSW 5.8 mph - N/A   Overcast
8:59 AM 17.6 °F 9.3 °F 17.6 °F 100% 30.24 in 5.0 mi SW 5.8 mph - N/A   Overcast
9:59 AM 19.4 °F 14.3 °F 15.8 °F 86% 30.24 in 7.0 mi SW 3.5 mph - N/A   Overcast
10:59 AM 21.2 °F 14.9 °F 17.6 °F 86% 30.22 in 7.0 mi SW 4.6 mph - N/A   Mostly Cloudy
11:59 AM 24.8 °F 19.1 °F 19.4 °F 80% 30.18 in 10.0 mi SW 4.6 mph - N/A   Clear
12:59 PM 26.6 °F 20.0 °F 21.2 °F 80% 30.15 in 10.0 mi SSW 5.8 mph - N/A   Clear
1:59 PM 28.4 °F 21.2 °F 21.2 °F 74% 30.13 in 10.0 mi South 6.9 mph - N/A   Clear
2:59 PM 30.2 °F 24.3 °F 23.0 °F 75% 30.12 in 10.0 mi South 5.8 mph - N/A   Clear
3:59 PM 30.2 °F 25.4 °F 23.0 °F 75% 30.09 in 10.0 mi South 4.6 mph - N/A   Clear
4:59 PM 28.4 °F 24.6 °F 24.8 °F 86% 30.07 in 10.0 mi South 3.5 mph - N/A   Clear
5:59 PM 28.4 °F 24.6 °F 24.8 °F 86% 30.04 in 10.0 mi SSE 3.5 mph - N/A   Clear
6:59 PM 26.6 °F 21.2 °F 24.8 °F 93% 30.01 in 10.0 mi South 4.6 mph - N/A   Clear
8:59 PM 26.6 °F 19.1 °F 24.8 °F 93% 29.96 in 10.0 mi South 6.9 mph - N/A   Clear
9:59 PM 26.6 °F 20.0 °F 24.8 °F 93% 29.95 in 10.0 mi South 5.8 mph - N/A   Clear
11:59 PM 28.4 °F 19.1 °F 23.0 °F 80% 29.88 in 10.0 mi SSW 10.4 mph - N/A   Clear